ARIANE 1 DEB

Satellite information

Favourite Embed

Satellite Type and Status

DEBRISIN ORBIT

Key statistics

Satellite ARIANE 1 DEB at a glance.

Uptime

14379

Days in orbit

Revolutions

≈ 14.8

Per day

Orbit

SSO

Sun Synchronous Orbit

Inclination

99.1

Latest

Satellite identification and parameters

Extended collection of information and parameters for ARIANE 1 DEB.

Object identification

Identified? True

Debris? True

Object name: ARIANE 1 DEB

International designator: 1986-019FQ

Object number (NORAD): 17429

Object ID (CCSDS): 17429

Country: FRANCE (FR)

Current information (Y/N): Y

RCS size: SMALL

Orbital parameters

Period: 97.534 minutes

Inclination: 99.0774 deg

SMA: 7018.802 km

Apoapsis: 668.903 km

Periapsis: 612.431 km

RAAN: 52.919 deg

Eccentricy: 0.0040229

Argument of periapsis: 300.9212 deg

Mean anomaly: 58.8043 deg

Mean motion: 14.7641436 rev/day

Mean motion (dot): 0.00006009 rev/day2

B* drag term: 0.00086175 1/REarth

Two-line elements (TLE)

Creation date: July 5, 2025, 5:45 p.m.

Reference frame: TEME

Reference center: EARTH

Epoch: July 5, 2025, 2:07 p.m. UTC

TLE line 0: 0 ARIANE 1 DEB

TLE line 1: 1 17429U 86019FQ 25186.58819957 .00006009 00000-0 86175-3 0 9996

TLE line 2: 2 17429 99.0774 52.9190 0040229 300.9212 58.8043 14.76414360 20760

Live tracking on map

Real-time ground track for satellite ARIANE 1 DEB.

In-orbit conjunctions

A list of the most updated potential collisions computed for object ARIANE 1 DEB.

Target Orbit TCA Probability of collision Miss distance Type
CZ-6A DEB LEO 2025-02-17 01:53:26 0.0002175483 475.0 (m) DEBRIS
CZ-6A DEB LEO 2025-01-25 14:48:40 0.000324117 493.0 (m) DEBRIS
CZ-6A DEB LEO 2025-01-02 04:36:00 0.0001306559 125.0 (m) DEBRIS
AEROCUBE 2 SSO 2024-12-05 15:59:21 0.0001018623 574.0 (m) PAYLOAD

Associated space launch

SPOT 1 is a French Earth observation satellite. Viking is Sweden's first satellite.

ARIANE 1 DEB was lifted into orbit during the mission ‘Ariane 1 | SPOT 1 & Viking’, on board a Ariane 1 space rocket.

The launch took place on Feb. 22, 1986, 1:44 a.m. from Ariane Launch Area 1 (ELV).

For more information about the launch, click the button.

Launch to space Ariane 1 | SPOT 1 & Viking
Ariane 1 | SPOT 1 & Viking

Agency: N/A

Status: Launch Successful

Launch date: Feb. 22, 1986, 1:44 a.m. UTC

Rocket: Ariane 1

Launch pad: Ariane Launch Area 1 (ELV)

Location: Guiana Space Centre, French Guiana

...

Latest news about this satellite

There are no fresh news available about this satellite. Check back as we update our databases every day.


Newsletter sign-up

Weekly statistics, charts and insights to help you stay on top of the space industry.